Date String (YYYY-MM-DD hh:mm:ss) UTC,Instrument flags,absolute air pressure of the measurement (hPa),sample flow rate (lpm),inlet stack bypass flow (lpm),air temperature of the measurement (°C),ambient temperature measured by the external sensor (°C),aerosol sample conditioner tube jacket temperature (°C),OPC LED temperature (°C),internal box temperature (°C),relative humidity of the measurement (%),span deviation,mass concentration of particles derived from Lorenz-Mie calculation of OPC scattering (μg/m³),mass concentration of particles derived from Lorenz-Mie calculation of OPC scattering (μg/m³),mass concentration of particles derived from Lorenz-Mie calculation of OPC scattering (μg/m³)
DateTimeUTC,F1_M11,P_M11,Q1_M11,Q2_M11,T1_M11,T2_M11,T3_M11,T4_M11,T5_M11,U1_M11,ZSPAN_M11,X0_M11,X2_M11,X1_M11
2023-12-01 10:00:00,SystemResetWarning,0820.6,5.00,000.00,019.0,018.1,000.0,027.4,020.1,16.1,0003.4,0016.53,0008.50,0007.65
2023-12-01 10:01:00,SystemResetWarning,0820.6,5.00,000.00,019.0,018.1,000.0,027.4,020.1,16.1,0003.5,0016.50,0008.48,0007.64
2023-12-01 10:02:00,SystemResetWarning,0820.7,5.00,000.00,019.0,018.1,000.0,027.4,020.1,16.1,0003.5,0016.35,0008.46,0007.63
2023-12-01 10:03:00,SystemResetWarning,0820.6,5.00,000.00,019.0,018.1,000.0,027.4,020.1,16.1,0003.2,0016.41,0008.44,0007.63
2023-12-01 10:04:00,SystemResetWarning,0820.6,5.00,000.00,019.0,018.1,000.0,027.4,020.1,16.1,0003.1,0016.32,0008.41,0007.64
2023-12-01 10:05:00,SystemResetWarning,0820.6,5.00,000.00,019.0,018.1,000.0,027.4,020.2,16.1,0002.8,0015.87,0008.39,0007.65
2023-12-01 10:06:00,SystemResetWarning,0820.6,5.00,000.00,019.0,018.1,000.0,027.4,020.2,16.1,0002.6,0014.85,0008.37,0007.66
2023-12-01 10:07:00,SystemResetWarning,0820.6,5.00,000.00,019.0,018.1,000.0,027.4,020.2,16.1,0002.8,0014.71,0008.33,0007.67
2023-12-01 10:08:00,SystemResetWarning,0820.7,5.00,000.00,019.0,018.1,000.0,027.4,020.2,16.1,0002.8,0014.94,0008.32,0007.67
2023-12-01 10:09:00,SystemResetWarning,0820.6,5.00,000.00,019.0,018.1,000.0,027.4,020.2,16.1,0002.4,0013.90,0008.30,0007.66
2023-12-01 10:10:00,SystemResetWarning,0820.6,5.01,000.00,019.0,018.1,000.0,027.4,020.2,16.1,0001.4,0013.95,0008.29,0007.67
2023-12-01 10:11:00,SystemResetWarning,0820.6,5.01,000.00,019.0,018.1,000.0,027.4,020.1,16.1,0000.0,0014.01,0008.32,0007.68
2023-12-01 10:12:00,SystemResetWarning,0820.6,4.99,000.00,019.0,018.1,000.0,027.4,020.2,16.1,0000.0,0014.15,0008.36,0007.70
2023-12-01 10:13:00,SystemResetWarning,0820.6,4.99,000.00,019.0,018.1,000.0,027.4,020.2,16.1,0000.0,0013.98,0008.39,0007.72
2023-12-01 10:14:00,SystemResetWarning,0820.6,5.01,000.00,019.0,018.1,000.0,027.3,020.1,16.0,0000.5,0014.43,0008.37,0007.71
2023-12-01 10:15:00,SystemResetWarning,0820.7,4.99,000.00,019.0,018.1,000.0,027.3,020.2,16.0,0002.1,0014.08,0008.39,0007.72
2023-12-01 10:16:00,SystemResetWarning,0820.7,5.00,000.00,019.0,018.1,000.0,027.3,020.1,16.0,0002.6,0014.08,0008.43,0007.73
2023-12-01 10:17:00,SystemResetWarning,0820.6,5.01,000.00,019.0,018.1,000.0,027.3,020.2,16.0,0000.4,0013.86,0008.44,0007.73
2023-12-01 10:18:00,SystemResetWarning,0820.6,5.01,000.00,019.0,018.1,000.0,027.3,020.2,16.0,0000.0,0014.02,0008.47,0007.74
2023-12-01 10:19:00,SystemResetWarning,0820.6,4.99,000.00,019.0,018.1,000.0,027.3,020.1,16.0,0000.0,0013.73,0008.43,0007.74
2023-12-01 10:20:00,SystemResetWarning,0820.6,4.99,000.00,019.0,018.1,000.0,027.3,020.1,16.0,0000.0,0013.78,0008.43,0007.76
2023-12-01 10:21:00,SystemResetWarning,0820.7,5.00,000.00,019.0,018.1,000.0,027.3,020.2,16.0,0000.0,0013.49,0008.46,0007.77
2023-12-01 10:22:00,SystemResetWarning,0820.7,5.01,000.00,019.0,018.1,000.0,027.3,020.2,16.0,0000.0,0013.90,0008.47,0007.78
2023-12-01 10:23:00,SystemResetWarning,0820.7,5.00,000.00,019.0,018.1,000.0,027.3,020.1,16.0,0000.0,0013.87,0008.44,0007.79
2023-12-01 10:24:00,SystemResetWarning,0820.7,5.00,000.00,019.0,018.1,000.0,027.3,020.2,15.9,0000.0,0013.74,0008.40,0007.79
2023-12-01 10:25:00,SystemResetWarning,0820.7,5.00,000.00,019.0,018.1,000.0,027.3,020.2,15.9,0000.3,0013.47,0008.43,0007.79
2023-12-01 10:26:00,SystemResetWarning,0820.7,4.99,000.00,019.0,018.1,000.0,027.3,020.2,15.8,0000.4,0014.68,0008.47,0007.79
2023-12-01 10:27:00,SystemResetWarning,0820.7,4.99,000.00,019.0,018.1,000.0,027.3,020.2,15.8,0000.4,0015.08,0008.43,0007.78
2023-12-01 10:28:00,SystemResetWarning,0820.7,5.00,000.00,019.0,018.1,000.0,027.3,020.2,15.8,0000.3,0015.35,0008.44,0007.78
2023-12-01 10:29:00,SystemResetWarning,0820.7,5.01,000.00,019.0,018.1,000.0,027.3,020.1,15.7,0000.0,0015.68,0008.43,0007.78
2023-12-01 10:30:00,SystemResetWarning,0820.7,5.01,000.00,019.0,018.1,000.0,027.3,020.1,15.8,0001.0,0016.52,0008.46,0007.79
2023-12-01 10:31:00,SystemResetWarning,0820.6,5.00,000.00,019.0,018.1,000.0,027.3,020.1,15.8,0002.3,0016.54,0008.48,0007.79
2023-12-01 10:32:00,SystemResetWarning,0820.6,4.99,000.00,019.0,018.1,000.0,027.3,020.1,15.8,0002.6,0016.83,0008.47,0007.78
2023-12-01 10:33:00,SystemResetWarning,0820.6,4.99,000.00,019.0,018.1,000.0,027.3,020.2,15.8,0001.9,0016.69,0008.46,0007.78
2023-12-01 10:34:00,SystemResetWarning,0820.6,5.00,000.00,019.0,018.1,000.0,027.3,020.1,15.9,0002.4,0017.09,0008.48,0007.79
2023-12-01 10:35:00,SystemResetWarning,0820.6,5.00,000.00,019.0,018.0,000.0,027.3,020.1,16.0,0002.6,0017.33,0008.51,0007.80
2023-12-01 10:36:00,SystemResetWarning,0820.6,5.01,000.00,019.0,018.0,000.0,027.3,020.1,16.0,0001.9,0017.22,0008.48,0007.78
2023-12-01 10:37:00,SystemResetWarning,0820.5,5.00,000.00,019.0,018.0,000.0,027.3,020.1,16.0,0001.3,0016.04,0008.42,0007.78
2023-12-01 10:38:00,SystemResetWarning,0820.6,5.00,000.00,019.0,018.0,000.0,027.3,020.1,15.9,0001.1,0015.48,0008.44,0007.79
2023-12-01 10:39:00,SystemResetWarning,0820.5,5.00,000.00,019.0,018.0,000.0,027.3,020.1,15.9,0001.4,0015.25,0008.44,0007.79
2023-12-01 10:40:00,SystemResetWarning,0820.5,5.00,000.00,019.0,018.0,000.0,027.3,020.1,15.9,0001.3,0014.77,0008.41,0007.78
2023-12-01 10:41:00,SystemResetWarning,0820.5,5.00,000.00,019.0,018.0,000.0,027.3,020.1,15.9,0001.9,0013.37,0008.36,0007.77
2023-12-01 10:42:00,SystemResetWarning,0820.5,5.00,000.00,019.0,018.0,000.0,027.3,020.1,15.9,0002.4,0013.06,0008.36,0007.79
2023-12-01 10:43:00,SystemResetWarning,0820.5,5.00,000.00,018.9,018.0,000.0,027.3,020.1,15.9,0002.0,0012.72,0008.35,0007.81
2023-12-01 10:44:00,SystemResetWarning,0820.6,5.00,000.00,018.9,018.0,000.0,027.2,020.1,16.0,0002.1,0012.56,0008.35,0007.83
2023-12-01 10:45:00,SystemResetWarning,0820.6,5.00,000.00,018.9,018.0,000.0,027.2,020.1,16.0,0002.2,0012.64,0008.33,0007.83
2023-12-01 10:46:00,SystemResetWarning,0820.6,5.00,000.00,018.9,018.0,000.0,027.3,020.1,15.9,0002.2,0012.79,0008.35,0007.84
2023-12-01 10:47:00,SystemResetWarning,0820.5,5.00,000.00,018.9,018.0,000.0,027.2,020.1,15.9,0002.9,0013.02,0008.41,0007.87
2023-12-01 10:48:00,SystemResetWarning,0820.6,5.00,000.00,018.9,018.0,000.0,027.2,020.1,15.9,0003.4,0013.13,0008.44,0007.87
2023-12-01 10:49:00,SystemResetWarning,0820.5,4.99,000.00,018.9,018.0,000.0,027.2,020.0,16.0,0002.8,0012.96,0008.41,0007.87
2023-12-01 10:50:00,SystemResetWarning,0820.5,4.99,000.00,018.9,018.0,000.0,027.2,020.0,15.9,0002.2,0013.05,0008.42,0007.87
2023-12-01 10:51:00,SystemResetWarning,0820.6,5.00,000.00,018.9,018.0,000.0,027.2,020.0,16.0,0001.6,0013.30,0008.49,0007.89
2023-12-01 10:52:00,SystemResetWarning,0820.6,5.00,000.00,018.9,018.0,000.0,027.2,020.0,16.0,0001.2,0013.57,0008.53,0007.89
2023-12-01 10:53:00,SystemResetWarning,0820.6,5.00,000.00,018.9,017.9,000.0,027.2,020.0,16.0,0000.3,0013.82,0008.53,0007.88
2023-12-01 10:54:00,SystemResetWarning,0820.5,5.01,000.00,018.9,017.9,000.0,027.2,020.0,16.0,0000.5,0013.98,0008.54,0007.87
2023-12-01 10:55:00,SystemResetWarning,0820.5,5.00,000.00,018.9,017.9,000.0,027.2,020.0,16.0,0001.1,0014.10,0008.54,0007.84
2023-12-01 10:56:00,SystemResetWarning,0820.6,5.00,000.00,018.9,017.9,000.0,027.2,020.0,16.0,0000.7,0013.58,0008.55,0007.83
2023-12-01 10:57:00,SystemResetWarning,0820.6,5.00,000.00,018.9,017.9,000.0,027.2,020.0,16.1,0000.6,0012.97,0008.50,0007.83
2023-12-01 10:58:00,SystemResetWarning,0820.6,4.99,000.00,018.8,017.9,000.0,027.2,020.0,16.1,-000.4,0012.83,0008.48,0007.82
2023-12-01 10:59:00,SystemResetWarning,0820.6,4.99,000.00,018.8,017.9,000.0,027.2,020.0,16.0,-000.6,0012.91,0008.52,0007.83
